Regional Weather Roundup
Issued by NWS

Home | Current Version | Previous Version | Graphics & Text | Print | Product List | Glossary On
Versions: 1 2 3 4 5 6 7 8 9 10 11 12 13 14 15 16 17 18 19 20 21 22 23 24 25 26 27 28 29 30 31 32 33 34 35 36 37 38 39 40 41 42 43 44 45 46 47 48 49 50
000
ASUS43 KIND 230309
RWRIN

WEATHER ROUNDUP FOR INDIANA
NATIONAL WEATHER SERVICE INDIANAPOLIS IN
1100 PM EDT FRI MAY 22 2015

NOTE: "FAIR" INDICATES FEW OR NO CLOUDS BELOW 12,000 FEET WITH NO
SIGNIFICANT WEATHER AND/OR OBSTRUCTIONS TO VISIBILITY.

* - STATION DOES NOT REPORT WEATHER SUCH AS PRECIPITATION OR FOG.

+ - STATION NOT QUALITY CONTROLLED BY THE NATIONAL WEATHER SERVICE.
    USE DATA WITH CAUTION...ESPECIALLY DEWPOINT AND RELATIVE
    HUMIDITY OBSERVATIONS.

INZ001>003-010>013-019-020-230400-
NORTHWEST INDIANA

CITY           SKY/WX    TMP DP  RH WIND       PRES   REMARKS
GARY /AIRPORT/ MOCLDY    54  45  71 CALM      30.29R
KNOX *+        MOCLDY    54  34  47 CALM      30.29R
LA PORTE +     MOCLDY    57  34  42 E3        30.30R
MICHIGAN CITY+ MOCLDY    50  36  57 CALM      30.30R
MONTICELLO +   FAIR      59  37  44 NE7       30.28R
RENSSELAER +   MOCLDY    57  37  47 NE6       30.28R
VALPARAISO     MOCLDY    54  39  57 E5        30.30R

$$

LMZ046-743>745-230400-
SOUTHERN LAKE MICHIGAN

STATION/POSITION TIME  TEMP    WIND        PRES    WAVE
                       AIR SEA DIR/SP/G            HT
                 (UTC) (F)     (DEG/KT/KT) (MB)    (FT)
BURNS HARBOR     0300   56      80/  4/  7 1026.1S
MICHIGAN CITY    0300   56      70/  5/  6   N/A
5NW MICH CITY    0300   53 51   80/  8/ 10   N/A     2

$$

INZ004-005-014>016-021>024-230400-
NORTH CENTRAL INDIANA

CITY           SKY/WX    TMP DP  RH WIND       PRES   REMARKS
GOSHEN         MOCLDY    53  36  52 N6        30.31R
LOGANSPORT +   PTCLDY    59  27  29 CALM      30.30R
PERU/GRISSOM   MOCLDY    55  39  54 NE8       30.28R
ROCHESTER +    MOCLDY    61  34  36 NE3       30.30R
SOUTH BEND     MOCLDY    55  33  43 NE5       30.31R
WARSAW +       MOCLDY    55  34  44 NE5       30.29S

$$

INZ006>009-017-018-025>027-230400-
NORTHEAST INDIANA

CITY           SKY/WX    TMP DP  RH WIND       PRES   REMARKS
ANGOLA *+      CLEAR     54  37  54 N3        30.30R
AUBURN +       MOCLDY    55  32  41 N5        30.30R
FORT WAYNE     MOCLDY    56  39  53 N7        30.30R
HUNTINGTON +   MOCLDY    57  36  45 N5        30.30R

$$

INZ028-029-035-036-043>045-051>053-230400-
WEST CENTRAL INDIANA

CITY           SKY/WX    TMP DP  RH WIND       PRES   REMARKS
CRAWFORDSVL +  PTCLDY    60  35  40 E3        30.28R
GREENCASTLE +  PTCLDY    55  46  71 CALM      30.28R
LAFAYETTE      PTCLDY    58  37  45 NE7       30.27R
TERRE HAUTE    CLOUDY    64  52  64 S5        30.26R

$$

INZ030>032-037>040-046>048-054>057-064-065-230400-
CENTRAL INDIANA

CITY           SKY/WX    TMP DP  RH WIND       PRES   REMARKS
CP ATTERBURY + PTCLDY    55  50  82 CALM      30.28R
FRANKFORT +    CLEAR     60  37  43 NE6       30.30R
GREENWOOD *+   CLEAR     59  45  58 CALM      30.28R
INDIANAPOLIS   PTCLDY    64  43  46 CALM      30.26R
-EAGLE CREEK   CLEAR     60  50  69 CALM      30.27R
KOKOMO *+      MOCLDY    57  37  47 NE9       30.29R
MARION +       MOCLDY    61  36  39 NE8       30.30R
MT COMFORT *+  PTCLDY    59  36  41 CALM      30.28R
SHELBYVILLE    CLEAR     62  47  57 SW3       30.27R
ZIONSVILLE +   CLEAR     59  40  49 NE7       30.29R

$$

INZ033-034-041-042-049-050-058-059-230400-
EAST CENTRAL INDIANA

CITY           SKY/WX    TMP DP  RH WIND       PRES   REMARKS
MUNCIE         MOCLDY    60  42  51 CALM      30.29R

$$

INZ060-061-067>069-081>083-085>088-230400-
SOUTHWEST INDIANA

CITY           SKY/WX    TMP DP  RH WIND       PRES   REMARKS
EVANSVILLE     MOCLDY    65  54  67 CALM      30.28R
HUNTINGBURG *+ PTCLDY    64  50  59 S3        30.29R
WASHINGTON +   MOCLDY    62  53  73 CALM      30.27R

$$

INZ062-063-066-070>080-084-089>092-230400-
SOUTH CENTRAL AND SOUTHEAST INDIANA

CITY           SKY/WX    TMP DP  RH WIND       PRES   REMARKS
BLOOMINGTON    PTCLDY    58  50  75 CALM      30.28R
MADISON *+     PTCLDY    55  48  76 CALM      30.30R
NORTH VERNON + PTCLDY    54  52  94 CALM      30.28R
SEYMOUR +      PTCLDY    57  48  72 S5        30.28R

$$




USA.gov is the U.S. government's official web portal to all federal, state and local government web resources and services.